Location: Unspecified
(42.2730°N, 83.7130°W)
Time: 14:37:02
(UTC+00:00)

Landsat 7 - Pass Details

Date: 14 December 2025
Orbit: 680 x 682 km, 97.9° (Epoch: 17 January)

Event Time Altitude Azimuth Distance (km) Brightness Sun altitude
Rises 22:47:17 0° 154° (SSE) 3,030 7.1 -8.1°
Reaches altitude 10° 22:49:32 10° 150° (SSE) 2,119 6.2 -8.4°
Maximum altitude 22:54:04 55° 73° (ENE) 819 3.8 -9.2°
Drops below altitude 10° 22:58:37 10° 356° (N) 2,134 6.1 -10.0°
Sets 23:00:54 0° 352° (N) 3,054 7.0 -10.4°
